When you browse on this site, cookies collect data to enhance your experience and personalize the content and advertising you see.
Visit our Privacy Policy to learn more. By continuing to use the site, you agree to this use of cookies and data.
  • In Hungary
  • List of Countries
  • For 7 days
  • Water Temperature
  • Weather Map
  • News
  • Weather Widgets
  • user-avatar
    Login

    Hourly Weather El Monte

    Today, 31 March, Tuesday

    Time Temperature Precipitation Wind Pressure Humidity
    00:00 +17°C° 0 mm 0 mps 757 mmHg 56%
    01:00 +16°C° 0 mm 0 mps 757 mmHg 56%
    02:00 +16°C° 0 mm 0 mps 756 mmHg 55%
    03:00 +16°C° 0 mm 0 mps 756 mmHg 54%
    04:00 +18°C° 0 mm 1 mps 755 mmHg 53%
    05:00 +19°C° 0 mm 1 mps 756 mmHg 52%
    06:00 +19°C° 0 mm 1 mps 756 mmHg 51%
    07:00 +20°C° 0 mm 1 mps 756 mmHg 49%
    08:00 +21°C° 0 mm 1 mps 755 mmHg 44%
    09:00 +23°C° 0 mm 1 mps 755 mmHg 39%
    10:00 +24°C° 0 mm 1 mps 754 mmHg 34%
    11:00 +25°C° 0 mm 2 mps 754 mmHg 32%
    12:00 +26°C° 0 mm 2 mps 753 mmHg 30%
    13:00 +27°C° 0 mm 3 mps 753 mmHg 28%
    14:00 +27°C° 0 mm 3 mps 752 mmHg 29%
    15:00 +26°C° 0 mm 3 mps 752 mmHg 31%
    16:00 +26°C° 0 mm 3 mps 751 mmHg 32%
    17:00 +25°C° 0 mm 3 mps 751 mmHg 37%
    18:00 +23°C° 0 mm 2 mps 751 mmHg 41%
    19:00 +22°C° 0 mm 1 mps 751 mmHg 46%
    20:00 +21°C° 0 mm 1 mps 751 mmHg 47%
    21:00 +21°C° 0 mm 1 mps 751 mmHg 48%
    22:00 +21°C° 0 mm 1 mps 751 mmHg 49%
    23:00 +20°C° 0 mm 1 mps 750 mmHg 51%

    Tomorrow, 1 April, Wednesday

    Time Temperature Precipitation Wind Pressure Humidity
    00:00 +20°C° 0 mm 1 mps 750 mmHg 53%
    01:00 +17°C° 0 mm 0 mps 750 mmHg 54%
    02:00 +19°C° 0 mm 1 mps 749 mmHg 55%
    03:00 +19°C° 0 mm 1 mps 749 mmHg 57%
    04:00 +18°C° 0 mm 1 mps 748 mmHg 58%
    05:00 +19°C° 0 mm 1 mps 749 mmHg 58%
    06:00 +19°C° 0 mm 1 mps 749 mmHg 58%
    07:00 +19°C° 0 mm 1 mps 749 mmHg 58%
    08:00 +20°C° 0 mm 1 mps 749 mmHg 53%
    09:00 +21°C° 0 mm 2 mps 749 mmHg 49%
    10:00 +23°C° 0 mm 2 mps 749 mmHg 44%
    11:00 +24°C° 0 mm 3 mps 749 mmHg 43%
    12:00 +24°C° 0 mm 3 mps 748 mmHg 41%
    13:00 +25°C° 0 mm 3 mps 748 mmHg 39%
    14:00 +25°C° 0 mm 4 mps 748 mmHg 42%
    15:00 +23°C° 0 mm 4 mps 747 mmHg 44%
    16:00 +23°C° 0 mm 4 mps 747 mmHg 47%
    17:00 +21°C° 0 mm 3 mps 748 mmHg 54%
    18:00 +20°C° 0 mm 3 mps 748 mmHg 62%
    19:00 +18°C° 0 mm 2 mps 748 mmHg 69%
    20:00 +18°C° 0 mm 2 mps 749 mmHg 73%
    21:00 +17°C° 0 mm 2 mps 749 mmHg 76%
    22:00 +17°C° 0 mm 2 mps 750 mmHg 80%
    23:00 +17°C° 0 mm 2 mps 750 mmHg 80%

    Day after tomorrow, 2 April, Thursday

    Time Temperature Precipitation Wind Pressure Humidity
    00:00 +17°C° 0 mm 2 mps 749 mmHg 81%
    01:00 +16°C° 0 mm 2 mps 749 mmHg 81%
    02:00 +16°C° 0 mm 2 mps 749 mmHg 81%
    03:00 +16°C° 0 mm 2 mps 749 mmHg 80%
    04:00 +16°C° 0 mm 2 mps 750 mmHg 80%
    05:00 +16°C° 0 mm 2 mps 750 mmHg 78%
    06:00 +16°C° 0 mm 2 mps 750 mmHg 77%
    07:00 +16°C° 0 mm 2 mps 750 mmHg 75%
    08:00 +17°C° 0 mm 2 mps 751 mmHg 71%
    09:00 +17°C° 0 mm 2 mps 751 mmHg 67%
    10:00 +18°C° 0 mm 2 mps 751 mmHg 63%
    11:00 +19°C° 0 mm 2 mps 751 mmHg 60%
    12:00 +19°C° 0 mm 2 mps 751 mmHg 58%
    13:00 +20°C° 0 mm 2 mps 751 mmHg 55%
    14:00 +20°C° 0 mm 3 mps 751 mmHg 55%
    15:00 +20°C° 0 mm 3 mps 751 mmHg 55%
    16:00 +21°C° 0 mm 3 mps 751 mmHg 55%
    17:00 +20°C° 0 mm 3 mps 751 mmHg 61%
    18:00 +19°C° 0 mm 3 mps 751 mmHg 67%
    19:00 +18°C° 0 mm 2 mps 752 mmHg 72%
    20:00 +17°C° 0 mm 2 mps 752 mmHg 74%
    21:00 +17°C° 0 mm 2 mps 753 mmHg 75%
    22:00 +16°C° 0 mm 2 mps 754 mmHg 77%
    23:00 +16°C° 0 mm 2 mps 753 mmHg 76%

    3 April, Friday

    Time Temperature Precipitation Wind Pressure Humidity
    00:00 +16°C° 0 mm 1 mps 753 mmHg 75%
    01:00 +15°C° 0 mm 1 mps 753 mmHg 74%
    02:00 +15°C° 0 mm 1 mps 753 mmHg 72%
    03:00 +15°C° 0 mm 1 mps 753 mmHg 69%
    04:00 +14°C° 0 mm 1 mps 753 mmHg 67%
    05:00 +15°C° 0 mm 1 mps 753 mmHg 65%
    06:00 +15°C° 0 mm 1 mps 754 mmHg 63%
    07:00 +16°C° 0 mm 1 mps 754 mmHg 61%
    08:00 +18°C° 0 mm 1 mps 754 mmHg 56%
    09:00 +19°C° 0 mm 2 mps 754 mmHg 51%
    10:00 +20°C° 0 mm 2 mps 754 mmHg 46%
    11:00 +21°C° 0 mm 3 mps 753 mmHg 43%
    12:00 +22°C° 0 mm 3 mps 753 mmHg 40%
    13:00 +24°C° 0 mm 3 mps 752 mmHg 37%
    14:00 +24°C° 0 mm 3 mps 752 mmHg 39%
    15:00 +22°C° 0 mm 4 mps 751 mmHg 41%
    16:00 +22°C° 0 mm 4 mps 751 mmHg 43%
    17:00 +21°C° 0 mm 3 mps 751 mmHg 46%
    18:00 +19°C° 0 mm 3 mps 751 mmHg 50%
    19:00 +18°C° 0 mm 2 mps 751 mmHg 54%
    20:00 +18°C° 0 mm 2 mps 751 mmHg 55%
    21:00 +17°C° 0 mm 2 mps 751 mmHg 56%
    22:00 +17°C° 0 mm 2 mps 752 mmHg 57%
    23:00 +16°C° 0 mm 1 mps 751 mmHg 59%

    4 April, Saturday

    Time Temperature Precipitation Wind Pressure Humidity
    00:00 +16°C° 0 mm 1 mps 751 mmHg 62%
    01:00 +15°C° 0 mm 1 mps 750 mmHg 64%
    02:00 +15°C° 0 mm 1 mps 750 mmHg 65%
    03:00 +15°C° 0 mm 1 mps 750 mmHg 67%
    04:00 +15°C° 0 mm 1 mps 750 mmHg 68%
    05:00 +15°C° 0 mm 1 mps 750 mmHg 68%
    06:00 +15°C° 0 mm 1 mps 750 mmHg 68%
    07:00 +15°C° 0 mm 1 mps 750 mmHg 67%
    08:00 +18°C° 0 mm 1 mps 750 mmHg 62%
    09:00 +18°C° 0 mm 2 mps 750 mmHg 56%
    10:00 +19°C° 0 mm 2 mps 750 mmHg 50%
    11:00 +20°C° 0 mm 3 mps 750 mmHg 49%
    12:00 +21°C° 0 mm 4 mps 749 mmHg 47%
    13:00 +21°C° 0 mm 4 mps 749 mmHg 46%
    14:00 +21°C° 0 mm 4 mps 748 mmHg 48%
    15:00 +20°C° 0 mm 4 mps 748 mmHg 51%
    16:00 +20°C° 0 mm 4 mps 747 mmHg 54%
    17:00 +19°C° 0 mm 4 mps 747 mmHg 58%
    18:00 +18°C° 0 mm 4 mps 748 mmHg 63%
    19:00 +17°C° 0 mm 4 mps 748 mmHg 67%
    20:00 +17°C° 0 mm 4 mps 748 mmHg 69%
    21:00 +16°C° 0 mm 3 mps 749 mmHg 71%
    22:00 +16°C° 0 mm 3 mps 749 mmHg 73%
    23:00 +14°C° 0 mm 3 mps 749 mmHg 73%

    5 April, Sunday

    Time Temperature Precipitation Wind Pressure Humidity
    00:00 +14°C° 0 mm 3 mps 749 mmHg 74%
    01:00 +13°C° 0 mm 3 mps 749 mmHg 75%
    02:00 +13°C° 0 mm 3 mps 749 mmHg 74%
    03:00 +13°C° 0 mm 3 mps 749 mmHg 74%
    04:00 +12°C° 0 mm 3 mps 749 mmHg 73%
    05:00 +12°C° 0 mm 3 mps 750 mmHg 73%
    06:00 +12°C° 0 mm 3 mps 750 mmHg 72%
    07:00 +12°C° 0 mm 3 mps 751 mmHg 71%
    08:00 +13°C° 0.1 mm 3 mps 751 mmHg 71%
    09:00 +13°C° 0.1 mm 4 mps 751 mmHg 71%
    10:00 +14°C° 0.1 mm 4 mps 751 mmHg 71%
    11:00 +14°C° 0.1 mm 4 mps 751 mmHg 71%
    12:00 +14°C° 0.1 mm 4 mps 751 mmHg 72%
    13:00 +14°C° 0.1 mm 4 mps 751 mmHg 72%
    14:00 +14°C° 0.1 mm 3 mps 750 mmHg 71%
    15:00 +14°C° 0.1 mm 3 mps 750 mmHg 71%
    16:00 +14°C° 0.1 mm 3 mps 750 mmHg 70%
    17:00 +14°C° 0.1 mm 3 mps 750 mmHg 71%
    18:00 +13°C° 0.1 mm 3 mps 750 mmHg 72%
    19:00 +13°C° 0.1 mm 3 mps 751 mmHg 74%
    20:00 +13°C° 0.1 mm 3 mps 751 mmHg 74%
    21:00 +13°C° 0.1 mm 3 mps 752 mmHg 75%
    22:00 +12°C° 0.1 mm 3 mps 752 mmHg 76%
    23:00 +12°C° 0.1 mm 3 mps 752 mmHg 75%
    Show more